User: anonymous
Location: Ladysmith
(45.4630°N, 91.1040°W)
Time: 02:39:09
(UTC-05:00)
Language:

SO-67 - Orbit

View from above orbital plane
View from above orbital plane
View from above satellite
View from above satellite

Ground track
Ground track

The orbit data is extracted from the following two-line orbital elements,

1 35870U 09049F   14203.83577780  .00002532  00000-0  80590-4 0  3565
2 35870 097.1596 223.9706 0001568 056.3809 068.6743 15.33478371269511
Epoch (UTC): 22 July 2014 20:03:31
Eccentricity: 0.0001568
inclination: 97.1596°
perigee height: 464 km
apogee height: 466 km
right ascension of ascending node: 223.9706°
argument of perigee: 56.3809°
revolutions per day: 15.33478371
mean anomaly at epoch: 68.6743°
orbit number at epoch: 26951

The dashed part of the orbit path shows where the satellite is in the earth's shadow,  

DLR